Airfield :
LOGIN :

Register | Disclaimer

   EN    FR    IT 

 










Legend :    VFR   Marginal VFR   IFR   Intensive IFR   Very Intensive IFR
Visi :
Ceiling :
>= 8 km
>= 3000ft
5 to 8 km
1000 to 3000 ft
1500m to 5 km
500 to 1000 ft
800 to 1500m
200 to 500 ft
< 800m
< 200 ft
Symbols :   Thunderstorms  Fog  Heavy snow  Heavy precipitations  Wind > 20 kt
SIGMETs :     Misc.  Thunderstorms  Icing  Turbulence  Mountain Waves  Volcanic Ashes






- Airport Elevation : 129 ft
- IATA code : ZCN


ETHC - Celle

CURRENT METAR :
  • 281020Z 10006KT 9999 BKN060 05/02 Q1012 BLU BLU TEMPO WHT

EXPIRED METARs :
  • 280920Z 11007KT 9999 FEW044 BKN060 05/02 Q1013 BLU BLU TEMPO WHT
  • 280820Z 10006KT 9999 FEW036 BKN090 05/02 Q1012 BLU BLU TEMPO WHT

TAF TAF ETHC
Valid from the 28 at 09:00 until the 28 at 18:00 UTC


280742Z 2809/2818 12008KT 9999 NSW SCT040 BKN080
TEMPO 2809/2818 13010KT 7000 -RADZ BKN020 BKN040



MET'MAP, your aeronautical weather chart ! - Copyright ORBIFLY December 2007 - Disclaimer

ORBIFLY MET'MAP TEAM :

Programming & Development : Alexandra Zaïnal
Original concept : Baudouin d'Aumeries
Technical & hardware support : Manuel Goepfert
Assistance : Marc-Olivier Méhu




SOURCES & CREDITS :

   NOAA